STARLINK-1073 (44914 NORAD) Tracking and Keplerian Element Data

This shows tracking and keplerian element data for the satellite.

Feedback or suggestion? Click here.




ElementValue
Catalog44914
NameSTARLINK-1073
Epoch Orbit1333
Epoch Day94.25001157
Epoch Year2020
RAAN352.1395
Inclination53
Eccentricity0.0002174
Argument of Perigee75.0984
Mean Anonmoly32.4554
Mean Motion15.05567957
Decay Rate8.192E-05
L11 44914U 20001A 20094.25001157 .00008192 00000-0 58095-3 0 9991
L22 44914 53.0000 352.1395 0002174 75.0984 32.4554 15.05567957 13330

Live tracking and technical data element details for STARLINK-1073 (NORAD 44914). STARLINK-1073 can be tracked NOW for your location showing map with azimuth and elevation plus other details from your city location.

Track the satellite on the map from your city or location and see movement details for azimuth, elevation, latitude, longitude, range, height, and movement on the map or in text.







IsCatalogInMostPopularTable: catalog: 44914, numindb: 23
Update: records affected: 1



GetName: 44914 STARLINK-1073

Hit Count: updated at: Fri, 10 Apr 2020 17:35:48 GMT